Location: Keewatin
(47.4004°N, 93.0827°W)
Time: 19:29:53
(UTC+00:00)

Envisat - Pass Details

Date: 10 December 2019
Orbit: 764 x 766 km, 98.1° (Epoch: 28 January)

Event Time Altitude Azimuth Distance (km) Brightness Sun altitude
Rises 12:58:59 0° 15° (NNE) 3,246 6.1 -8.1°
Reaches altitude 10° 13:01:19 10° 17° (NNE) 2,315 5.4 -7.8°
Maximum altitude 13:06:25 72° 102° (ESE) 807 3.4 -7.0°
Drops below altitude 10° 13:11:28 10° 187° (S) 2,297 5.8 -6.2°
Sets 13:13:46 0° 190° (S) 3,218 6.5 -5.9°
